• In Uzbekistan
  • List of Countries
  • For 7 days
  • Water Temperature
  • Satellite Maps
  • Weather Map
  • Weather Widgets
  • user-avatar
    Login

    Hourly Weather Wiktoria

    Today, 1 March, Wednesday

    Time Temperature Precipitation Wind Pressure Humidity
    00:00 +22°C° 0 mm 1 mps 753 mmHg 42%
    01:00 +22°C° 0 mm 1 mps 753 mmHg 44%
    02:00 +21°C° 0 mm 1 mps 753 mmHg 47%
    03:00 +21°C° 0 mm 1 mps 753 mmHg 50%
    04:00 +20°C° 0 mm 1 mps 753 mmHg 53%
    05:00 +20°C° 0 mm 1 mps 753 mmHg 56%
    06:00 +20°C° 0 mm 1 mps 753 mmHg 59%
    07:00 +21°C° 0 mm 1 mps 754 mmHg 62%
    08:00 +24°C° 0 mm 1 mps 754 mmHg 55%
    09:00 +27°C° 0 mm 1 mps 754 mmHg 48%
    10:00 +30°C° 0 mm 1 mps 754 mmHg 40%
    11:00 +32°C° 0 mm 1 mps 753 mmHg 34%
    12:00 +33°C° 0 mm 0 mps 753 mmHg 27%
    13:00 +35°C° 0 mm 0 mps 752 mmHg 20%
    14:00 +35°C° 0 mm 0 mps 752 mmHg 19%
    15:00 +36°C° 0 mm 1 mps 751 mmHg 18%
    16:00 +35°C° 0 mm 1 mps 751 mmHg 19%
    17:00 +33°C° 0 mm 1 mps 751 mmHg 23%
    18:00 +30°C° 0 mm 1 mps 751 mmHg 26%
    19:00 +28°C° 0 mm 1 mps 751 mmHg 29%
    20:00 +27°C° 0 mm 1 mps 751 mmHg 30%
    21:00 +26°C° 0 mm 1 mps 752 mmHg 32%
    22:00 +24°C° 0 mm 1 mps 752 mmHg 32%
    23:00 +23°C° 0 mm 1 mps 752 mmHg 35%

    Tomorrow, 2 March, Thursday

    Time Temperature Precipitation Wind Pressure Humidity
    00:00 +22°C° 0 mm 1 mps 752 mmHg 37%
    01:00 +21°C° 0 mm 1 mps 751 mmHg 40%
    02:00 +20°C° 0 mm 1 mps 751 mmHg 43%
    03:00 +20°C° 0 mm 1 mps 751 mmHg 46%
    04:00 +19°C° 0 mm 1 mps 751 mmHg 48%
    05:00 +19°C° 0 mm 1 mps 751 mmHg 51%
    06:00 +20°C° 0 mm 1 mps 752 mmHg 53%
    07:00 +20°C° 0 mm 1 mps 752 mmHg 55%
    08:00 +24°C° 0 mm 1 mps 752 mmHg 49%
    09:00 +27°C° 0 mm 1 mps 752 mmHg 42%
    10:00 +29°C° 0 mm 0 mps 752 mmHg 35%
    11:00 +32°C° 0 mm 1 mps 751 mmHg 29%
    12:00 +33°C° 0 mm 1 mps 751 mmHg 23%
    13:00 +36°C° 0 mm 2 mps 750 mmHg 16%
    14:00 +36°C° 0 mm 2 mps 750 mmHg 15%
    15:00 +36°C° 0 mm 3 mps 749 mmHg 14%
    16:00 +36°C° 0 mm 3 mps 749 mmHg 13%
    17:00 +35°C° 0 mm 3 mps 749 mmHg 18%
    18:00 +33°C° 0 mm 3 mps 750 mmHg 22%
    19:00 +30°C° 0 mm 3 mps 750 mmHg 27%
    20:00 +28°C° 0 mm 2 mps 751 mmHg 35%
    21:00 +27°C° 0 mm 2 mps 751 mmHg 43%
    22:00 +25°C° 0 mm 2 mps 752 mmHg 52%
    23:00 +24°C° 0 mm 2 mps 752 mmHg 59%

    Day after tomorrow, 3 March, Friday

    Time Temperature Precipitation Wind Pressure Humidity
    00:00 +23°C° 0 mm 2 mps 752 mmHg 67%
    01:00 +21°C° 0 mm 2 mps 752 mmHg 74%
    02:00 +20°C° 0 mm 2 mps 752 mmHg 78%
    03:00 +20°C° 0 mm 2 mps 752 mmHg 81%
    04:00 +19°C° 0 mm 2 mps 752 mmHg 85%
    05:00 +19°C° 0 mm 2 mps 752 mmHg 84%
    06:00 +19°C° 0 mm 2 mps 753 mmHg 83%
    07:00 +19°C° 0 mm 2 mps 753 mmHg 82%
    08:00 +21°C° 0 mm 2 mps 753 mmHg 71%
    09:00 +24°C° 0 mm 2 mps 753 mmHg 59%
    10:00 +27°C° 0 mm 2 mps 753 mmHg 48%
    11:00 +29°C° 0 mm 2 mps 753 mmHg 40%
    12:00 +31°C° 0 mm 2 mps 753 mmHg 33%
    13:00 +34°C° 0 mm 2 mps 752 mmHg 26%
    14:00 +34°C° 0 mm 2 mps 751 mmHg 25%
    15:00 +35°C° 0 mm 2 mps 751 mmHg 25%
    16:00 +35°C° 0 mm 2 mps 750 mmHg 24%
    17:00 +32°C° 0 mm 2 mps 751 mmHg 29%
    18:00 +30°C° 0 mm 2 mps 751 mmHg 35%
    19:00 +28°C° 0 mm 2 mps 751 mmHg 40%
    20:00 +26°C° 0 mm 2 mps 751 mmHg 46%
    21:00 +25°C° 0 mm 2 mps 752 mmHg 53%
    22:00 +23°C° 0 mm 1 mps 752 mmHg 59%
    23:00 +22°C° 0 mm 1 mps 752 mmHg 64%

    4 March, Saturday

    Time Temperature Precipitation Wind Pressure Humidity
    00:00 +21°C° 0 mm 1 mps 752 mmHg 69%
    01:00 +19°C° 0 mm 1 mps 752 mmHg 74%
    02:00 +19°C° 0 mm 1 mps 752 mmHg 77%
    03:00 +18°C° 0 mm 1 mps 752 mmHg 79%
    04:00 +18°C° 0 mm 1 mps 752 mmHg 82%
    05:00 +18°C° 0 mm 1 mps 752 mmHg 80%
    06:00 +18°C° 0 mm 1 mps 752 mmHg 78%
    07:00 +18°C° 0 mm 1 mps 753 mmHg 77%
    08:00 +22°C° 0 mm 1 mps 753 mmHg 65%
    09:00 +25°C° 0 mm 1 mps 752 mmHg 52%
    10:00 +29°C° 0 mm 1 mps 752 mmHg 40%
    11:00 +29°C° 0 mm 0 mps 752 mmHg 36%
    12:00 +31°C° 0 mm 0 mps 751 mmHg 32%
    13:00 +33°C° 0 mm 0 mps 750 mmHg 28%
    14:00 +34°C° 0 mm 1 mps 749 mmHg 27%
    15:00 +34°C° 0 mm 1 mps 749 mmHg 26%
    16:00 +34°C° 0 mm 1 mps 748 mmHg 25%
    17:00 +32°C° 0 mm 1 mps 748 mmHg 29%
    18:00 +29°C° 0 mm 1 mps 748 mmHg 34%
    19:00 +27°C° 0 mm 1 mps 748 mmHg 39%
    20:00 +26°C° 0 mm 1 mps 749 mmHg 42%
    21:00 +25°C° 0 mm 1 mps 749 mmHg 46%
    22:00 +24°C° 0 mm 1 mps 749 mmHg 49%
    23:00 +23°C° 0 mm 1 mps 749 mmHg 55%

    5 March, Sunday

    Time Temperature Precipitation Wind Pressure Humidity
    00:00 +22°C° 0 mm 1 mps 749 mmHg 60%
    01:00 +21°C° 0 mm 1 mps 749 mmHg 66%
    02:00 +20°C° 0 mm 1 mps 749 mmHg 70%
    03:00 +19°C° 0 mm 1 mps 749 mmHg 74%
    04:00 +19°C° 0 mm 1 mps 748 mmHg 79%
    05:00 +19°C° 0 mm 1 mps 749 mmHg 78%
    06:00 +19°C° 0 mm 1 mps 749 mmHg 78%
    07:00 +20°C° 0 mm 1 mps 750 mmHg 77%
    08:00 +23°C° 0 mm 1 mps 750 mmHg 66%
    09:00 +26°C° 0 mm 1 mps 750 mmHg 56%
    10:00 +29°C° 0 mm 1 mps 750 mmHg 45%
    11:00 +30°C° 0 mm 1 mps 750 mmHg 39%
    12:00 +31°C° 0 mm 2 mps 749 mmHg 33%
    13:00 +34°C° 0 mm 2 mps 749 mmHg 27%
    14:00 +34°C° 0 mm 2 mps 748 mmHg 25%
    15:00 +34°C° 0 mm 3 mps 748 mmHg 24%
    16:00 +33°C° 0 mm 3 mps 747 mmHg 23%
    17:00 +30°C° 0 mm 3 mps 748 mmHg 32%
    18:00 +28°C° 0 mm 3 mps 748 mmHg 41%
    19:00 +26°C° 0 mm 3 mps 749 mmHg 49%
    20:00 +25°C° 0 mm 3 mps 749 mmHg 55%
    21:00 +24°C° 0 mm 2 mps 750 mmHg 62%
    22:00 +21°C° 0 mm 2 mps 750 mmHg 68%
    23:00 +20°C° 0 mm 2 mps 750 mmHg 72%

    6 March, Monday

    Time Temperature Precipitation Wind Pressure Humidity
    00:00 +20°C° 0 mm 2 mps 750 mmHg 77%
    01:00 +19°C° 0 mm 2 mps 750 mmHg 81%
    02:00 +19°C° 0 mm 1 mps 750 mmHg 83%
    03:00 +19°C° 0 mm 1 mps 750 mmHg 86%
    04:00 +18°C° 0 mm 1 mps 750 mmHg 89%
    05:00 +18°C° 0 mm 1 mps 750 mmHg 88%
    06:00 +18°C° 0 mm 1 mps 751 mmHg 87%
    07:00 +18°C° 0 mm 1 mps 751 mmHg 86%
    08:00 +21°C° 0 mm 1 mps 751 mmHg 73%
    09:00 +24°C° 0 mm 1 mps 751 mmHg 60%
    10:00 +27°C° 0 mm 1 mps 751 mmHg 47%
    11:00 +29°C° 0 mm 1 mps 751 mmHg 41%
    12:00 +31°C° 0 mm 1 mps 750 mmHg 35%
    13:00 +33°C° 0 mm 1 mps 750 mmHg 29%
    14:00 +33°C° 0 mm 1 mps 749 mmHg 28%
    15:00 +33°C° 0 mm 1 mps 749 mmHg 27%
    16:00 +33°C° 0 mm 1 mps 748 mmHg 25%
    17:00 +31°C° 0 mm 1 mps 749 mmHg 30%
    18:00 +29°C° 0 mm 1 mps 749 mmHg 34%
    19:00 +27°C° 0 mm 1 mps 749 mmHg 39%
    20:00 +26°C° 0 mm 2 mps 750 mmHg 42%
    21:00 +25°C° 0 mm 2 mps 750 mmHg 45%
    22:00 +24°C° 0 mm 2 mps 751 mmHg 48%
    23:00 +21°C° 0 mm 2 mps 751 mmHg 53%
    Show more